Location: North Mitre
(40.7833°S, 175.4667°E)
Time: 04:33:54
(UTC+00:00)

Cosmos 1244 Rocket - Pass Details

Date: 04 August 2024
Orbit: 952 x 998 km, 83.0° (Epoch: 07 September)

Event Time Altitude Azimuth Distance (km) Brightness Sun altitude
Exits shadow 17:01:13 60° 311° (NW) 1,104 4.5 -26.6°
Maximum altitude 17:02:10 70° 261° (W) 1,034 4.3 -26.4°
Drops below altitude 10° 17:08:28 10° 177° (S) 2,750 6.9 -25.2°
Sets 17:11:02 0° 174° (S) 3,711 7.6 -24.7°
